星链-3882 (STARLINK-3882 )

导读 | 豆包AI

STARLINK-3882是美国SpaceX公司星链星座的V1.5批次卫星,于2022年5月6日发射。作为低轨通信卫星,它采用平板设计,搭载霍尔推进器,配备激光星间链路,可实现卫星间直接通信,助力构建全球高速互联网。卫星设计使用寿命约5-7年,寿命末期会主动离轨坠入大气层烧毁,减少空间碎片影响,目前已在轨道稳定运行,为偏远地区提供宽带服务。

基本信息
目录编号:
52475
目录名称:
STARLINK-3882
国际标识:
2022-049AA
轨道中心:
EARTH
卫星名称:
星链-3882
卫星全名:
星链-3882 (STARLINK-3882 )
卫星状态:
在轨 (已飞行1408 天)
发射日期:
2022-05-06 UTC
国别 :
美国 (US)
星等 :
--
轨道信息
数据来源 国际轨道数据 AOE轨道数据
星历时间 2026-03-14T11:58:35+0800
19小时前
查看轨道信息
2026-03-12T12:00:00+0800
2天前
查看轨道信息
半长轴 6917.868km 6917.89km
偏心率 0.0001488 0.000078
轨道倾角 53.218° 53.218°
近地点辐角 87.472° 45.809°
升交点赤经 39.248° 48.226°
平近点角 272.644° 250.044°
近地点 538.701km 539.213km
远地点 540.761km 540.293km
周期 95.437分钟 95.438分钟
每日圈数 15.088441 15.088371
详细信息
固有亮度:
5
最大亮度:
2.5
卫星平台:
Starlink v1.5
覆盖范围:
全球
运营商:
太空探索技术公司
运营商所在国:
美国
制造商(研发单位):
太空探索技术公司
制造商所在国:
美国
使用方式:
暂无
卫星简介
星链(Starlink)计划是由太空探索技术公司(SpaceX)提出的一个巨型低轨卫星互联网星座项目,计划在2019年至2024年间在太空搭建由约1.2万颗卫星组成的“星链”网络,其中1584颗将部署在地球上空550千米处的近地轨道,并从2020年开始工作。该卫星仍在工作。
2D轨道图
3D轨道图
轨道高度分析图
轨道倾角分析图
轨道综合分析图
查看轨道综合分析图